H1 CPF 2 NER 2020 11 12 9 317 01 glonass116 H2 0907001 9116 36111 2020 11 12 0 0 0 2020 11 15 23 45 0 900 1 1 0 0 0 1 H9 10 0 59165 0.00000 0 9751863.237 -11785694.174 -20423144.963 10 0 59165 900.00000 0 9812280.613 -9190530.898 -21687252.345 10 0 59165 1800.00000 0 10073166.138 -6477483.327 -22530589.476 10 0 59165 2700.00000 0 10541602.371 -3714397.225 -22936776.864 10 0 59165 3600.00000 0 11212549.093 -970011.407 -22897902.965 10 0 59165 4500.00000 0 12068973.004 1688662.237 -22414678.983 10 0 59165 5400.00000 0 13082497.759 4198882.034 -21496428.453 10 0 59165 6300.00000 0 14214548.119 6504538.641 -20160911.495 10 0 59165 7200.00000 0 15417941.058 8558238.751 -18433986.653 10 0 59165 8100.00000 0 16638858.014 10323024.745 -16349116.192 10 0 59165 9000.00000 0 17819116.301 11773659.482 -13946723.610 10 0 59165 9900.00000 0 18898644.874 12897423.264 -11273415.054 10 0 59165 10800.00000 0 19818060.737 13694390.357 -8381079.038 10 0 59165 11700.00000 0 20521237.619 14177174.062 -5325881.372 10 0 59165 12600.00000 0 20957758.459 14370151.593 -2167174.640 10 0 59165 13500.00000 0 21085147.771 14308201.998 1033656.621 10 0 59165 14400.00000 0 20870788.930 14035010.968 4214392.319 10 0 59165 15300.00000 0 20293444.537 13601014.781 7313190.949 10 0 59165 16200.00000 0 19344314.655 13061071.026 10269797.234 10 0 59165 17100.00000 0 18027587.208 12471955.386 13026719.093 10 0 59165 18000.00000 0 16360456.346 11889791.118 15530350.299 10 0 59165 18900.00000 0 14372607.075 11367520.699 17732016.468 10 0 59165 19800.00000 0 12105186.937 10952527.125 19588923.734 10 0 59165 20700.00000 0 9609307.281 10684505.923 21064991.437 10 0 59165 21600.00000 0 6944136.225 10593678.025 22131552.769 10 0 59165 22500.00000 0 4174662.462 10699419.192 22767910.041 10 0 59165 23400.00000 0 1369222.827 11009363.797 22961734.092 10 0 59165 24300.00000 0 -1403103.967 11519020.798 22709300.568 10 0 59165 25200.00000 0 -4075129.508 12211918.012 22015558.848 10 0 59165 26100.00000 0 -6584104.936 13060268.610 20894032.602 10 0 59165 27000.00000 0 -8874082.067 14026131.758 19366554.134 10 0 59165 27900.00000 0 -10897989.164 15063018.627 17462837.726 10 0 59165 28800.00000 0 -12619335.919 16117876.186 15219900.273 10 0 59165 29700.00000 0 -14013477.850 17133365.369 12681340.386 10 0 59165 30600.00000 0 -15068388.672 18050337.697 9896489.836 10 0 59165 31500.00000 0 -15784909.660 18810406.035 6919453.819 10 0 59165 32400.00000 0 -16176467.028 19358501.087 3808058.677 10 0 59165 33300.00000 0 -16268270.585 19645305.757 622727.596 10 0 59165 34200.00000 0 -16096028.618 19629464.550 -2574693.630 10 0 59165 35100.00000 0 -15704234.318 19279474.648 -5722137.734 10 0 59165 36000.00000 0 -15144096.962 18575178.655 -8758520.507 10 0 59165 36900.00000 0 -14471205.853 17508795.804 -11624925.034 10 0 59165 37800.00000 0 -13743026.117 16085447.789 -14265742.647 10 0 59165 38700.00000 0 -13016332.319 14323156.583 -16629748.575 10 0 59165 39600.00000 0 -12344688.154 12252313.716 -18671091.592 10 0 59165 40500.00000 0 -11776078.367 9914642.469 -20350178.965 10 0 59165 41400.00000 0 -11350792.378 7361695.386 -21634440.090 10 0 59165 42300.00000 0 -11099648.423 4652948.886 -22498954.556 10 0 59165 43200.00000 0 -11042632.610 1853573.124 -22926933.081 10 0 59165 44100.00000 0 -11188009.971 -968031.356 -22910042.449 10 0 59165 45000.00000 0 -11531944.837 -3742828.992 -22448568.374 10 0 59165 45900.00000 0 -12058646.723 -6403770.090 -21551413.208 10 0 59165 46800.00000 0 -12741035.960 -8888329.617 -20235928.249 10 0 59165 47700.00000 0 -13541901.729 -11140859.435 -18527583.437 10 0 59165 48600.00000 0 -14415504.456 -13114657.174 -16459480.161 10 0 59165 49500.00000 0 -15309555.879 -14773666.467 -14071715.777 10 0 59165 50400.00000 0 -16167494.021 -16093738.237 -11410611.425 10 0 59165 51300.00000 0 -16930957.651 -17063400.950 -8527817.389 10 0 59165 52200.00000 0 -17542356.059 -17684108.105 -5479312.771 10 0 59165 53100.00000 0 -17947425.552 -17969952.951 -2324318.753 10 0 59165 54000.00000 0 -18097664.309 -17946862.954 875853.535 10 0 59165 54900.00000 0 -17952541.993 -17651308.425 4058997.862 10 0 59165 55800.00000 0 -17481389.842 -17128580.310 7163226.661 10 0 59165 56700.00000 0 -16664890.304 -16430710.508 10128179.504 10 0 59165 57600.00000 0 -15496102.126 -15614123.229 12896202.069 10 0 59165 58500.00000 0 -13980976.525 -14737117.324 15413471.955 10 0 59165 59400.00000 0 -12138341.537 -13857286.616 17631048.917 10 0 59165 60300.00000 0 -9999354.138 -13028987.741 19505828.773 10 0 59165 61200.00000 0 -7606442.244 -12300962.794 21001382.229 10 0 59165 62100.00000 0 -5011780.093 -11714217.352 22088662.416 10 0 59165 63000.00000 0 -2275359.971 -11300243.349 22746567.664 10 0 59165 63900.00000 0 537259.782 -11079661.594 22962348.882 10 0 59165 64800.00000 0 3357437.289 -11061340.845 22731854.102 10 0 59165 65700.00000 0 6116057.475 -11242030.166 22059605.781 10 0 59165 66600.00000 0 8746162.226 -11606519.676 20958709.715 10 0 59165 67500.00000 0 11185491.730 -12128322.533 19450597.506 10 0 59165 68400.00000 0 13378832.123 -12770849.107 17564607.677 10 0 59165 69300.00000 0 15280072.582 -13489023.607 15337413.566 10 0 59165 70200.00000 0 16853887.162 -14231274.798 12812309.036 10 0 59165 71100.00000 0 18076972.378 -14941816.686 10038365.756 10 0 59165 72000.00000 0 18938789.918 -15563122.812 7069478.441 10 0 59165 72900.00000 0 19441784.692 -16038489.516 3963316.576 10 0 59165 73800.00000 0 19601070.351 -16314579.800 780203.092 10 0 59165 74700.00000 0 19443596.665 -16343840.121 -2418057.990 10 0 59165 75600.00000 0 19006834.950 -16086687.805 -5569381.947 10 0 59165 76500.00000 0 18337037.866 -15513376.421 -8612608.268 10 0 59165 77400.00000 0 17487147.708 -14605460.053 -11488686.443 10 0 59165 78300.00000 0 16514441.905 -13356794.269 -14141819.567 10 0 59165 79200.00000 0 15478015.274 -11774031.071 -16520543.677 10 0 59165 80100.00000 0 14436205.179 -9876586.338 -18578722.078 10 0 59165 81000.00000 0 13444067.849 -7696080.241 -20276435.821 10 0 59165 81900.00000 0 12551011.705 -5275273.050 -21580753.632 10 0 59165 82800.00000 0 11798686.740 -2666539.661 -22466366.908 10 0 59165 83700.00000 0 11219218.119 70054.793 -22916078.082 10 0 59165 84600.00000 0 10833857.672 2868999.527 -22921133.364 10 0 59165 85500.00000 0 10652109.535 5661810.824 -22481393.646 10 0 59166 0.00000 0 10671366.337 8379631.519 -21605340.360 10 0 59166 900.00000 0 10877071.394 10955850.610 -20309915.738 10 0 59166 1800.00000 0 11243399.564 13328635.285 -18620200.557 10 0 59166 2700.00000 0 11734429.557 15443270.642 -16568934.305 10 0 59166 3600.00000 0 12305757.556 17254211.401 -14195886.788 10 0 59166 4500.00000 0 12906485.371 18726759.811 -11547092.329 10 0 59166 5400.00000 0 13481499.255 19838300.606 -8673960.776 10 0 59166 6300.00000 0 13973943.432 20579041.614 -5632281.972 10 0 59166 7200.00000 0 14327783.732 20952229.217 -2481142.827 10 0 59166 8100.00000 0 14490352.602 20973829.929 718222.033 10 0 59166 9000.00000 0 14414767.211 20671691.831 3903623.469 10 0 59166 9900.00000 0 14062117.522 20084221.529 7013131.125 10 0 59166 10800.00000 0 13403330.716 19258632.940 9986282.625 10 0 59166 11700.00000 0 12420631.959 18248842.281 12765264.478 10 0 59166 12600.00000 0 11108538.598 17113098.719 15296040.985 10 0 59166 13500.00000 0 9474344.604 15911451.184 17529408.677 10 0 59166 14400.00000 0 7538073.631 14703158.709 19421955.439 10 0 59166 15300.00000 0 5331901.566 13544153.842 20936905.428 10 0 59166 16200.00000 0 2899071.790 12484666.187 22044833.499 10 0 59166 17100.00000 0 292347.574 11567106.080 22724235.435 10 0 59166 18000.00000 0 -2427934.451 10824297.264 22961943.278 10 0 59166 18900.00000 0 -5196129.325 10278132.422 22753378.077 10 0 59166 19800.00000 0 -7943773.658 9938707.533 22102635.557 10 0 59166 20700.00000 0 -10602197.312 9803970.776 21022403.334 10 0 59166 21600.00000 0 -13105148.941 9859899.989 19533711.525 10 0 59166 22500.00000 0 -15391326.835 10081200.526 17665521.636 10 0 59166 23400.00000 0 -17406710.400 10432493.429 15454161.765 10 0 59166 24300.00000 0 -19106595.973 10869943.282 12942618.991 10 0 59166 25200.00000 0 -20457252.944 11343256.560 10179702.577 10 0 59166 26100.00000 0 -21437131.896 11797965.700 7219094.265 10 0 59166 27000.00000 0 -22037575.267 12177902.072 4118304.097 10 0 59166 27900.00000 0 -22263001.810 12427752.962 937552.097 10 0 59166 28800.00000 0 -22130558.126 12495594.194 -2261402.152 10 0 59166 29700.00000 0 -21669252.953 12335290.981 -5416459.140 10 0 59166 30600.00000 0 -20918611.529 11908665.176 -8466384.727 10 0 59166 31500.00000 0 -19926907.430 11187337.005 -11351997.451 10 0 59166 32400.00000 0 -18749046.898 10154163.098 -14017314.739 10 0 59166 33300.00000 0 -17444195.056 8804209.593 -16410635.903 10 0 59166 34200.00000 0 -16073243.989 7145218.734 -18485541.057 10 0 59166 35100.00000 0 -14696229.007 5197548.468 -20201787.090 10 0 59166 36000.00000 0 -13369801.267 2993586.538 -21526083.824 10 0 59166 36900.00000 0 -12144862.312 576662.448 -22432735.901 10 0 59166 37800.00000 0 -11064459.100 -2000498.607 -22904138.565 10 0 59166 38700.00000 0 -10162027.033 -4677716.862 -22931118.182 10 0 59166 39600.00000 0 -9460053.972 -7389614.703 -22513111.176 10 0 59166 40500.00000 0 -8969220.621 -10068096.621 -21658177.982 10 0 59166 41400.00000 0 -8688052.861 -12644950.684 -20382851.489 10 0 59166 42300.00000 0 -8603100.335 -15054464.495 -18711822.476 10 0 59166 43200.00000 0 -8689633.654 -17235947.882 -16677467.459 10 0 59166 44100.00000 0 -8912830.904 -19136058.140 -14319227.308 10 0 59166 45000.00000 0 -9229403.596 -20710831.350 -11682847.898 10 0 59166 45900.00000 0 -9589593.587 -21927335.420 -8819496.815 10 0 59166 46800.00000 0 -9939456.669 -22764875.904 -5784772.662 10 0 59166 47700.00000 0 -10223336.228 -23215704.145 -2637625.976 10 0 59166 48600.00000 0 -10386421.939 -23285198.137 560787.341 10 0 59166 49500.00000 0 -10377284.686 -22991508.565 3748297.574 10 0 59166 50400.00000 0 -10150279.555 -22364685.085 6862934.036 10 0 59166 51300.00000 0 -9667714.216 -21445319.889 9844134.970 10 0 59166 52200.00000 0 -8901689.764 -20282766.074 12633930.378 10 0 59166 53100.00000 0 -7835535.005 -18933006.313 15178073.958 10 0 59166 54000.00000 0 -6464772.331 -17456262.120 17427101.682 10 0 59166 54900.00000 0 -4797573.170 -15914444.784 19337296.040 10 0 59166 55800.00000 0 -2854682.681 -14368555.642 20871537.000 10 0 59166 56700.00000 0 -668815.690 -12876145.162 22000023.210 10 0 59166 57600.00000 0 1716451.886 -11488937.613 22700849.670 10 0 59166 58500.00000 0 4248250.629 -10250720.804 22960430.950 10 0 59166 59400.00000 0 6866379.627 -9195589.009 22773762.149 10 0 59166 60300.00000 0 9505581.859 -8346612.064 22144512.918 10 0 59166 61200.00000 0 12098038.762 -7714985.685 21084952.996 10 0 59166 62100.00000 0 14575980.765 -7299697.639 19615710.954 10 0 59166 63000.00000 0 16874305.735 -7087722.785 17765370.884 10 0 59166 63900.00000 0 18933096.786 -7054737.766 15569914.887 10 0 59166 64800.00000 0 20699935.167 -7166324.271 13072022.126 10 0 59166 65700.00000 0 22131912.397 -7379609.298 10320237.943 10 0 59166 66600.00000 0 23197258.206 -7645272.447 7368029.196 10 0 59166 67500.00000 0 23876516.994 -7909834.804 4272744.166 10 0 59166 68400.00000 0 24163224.320 -8118132.106 1094497.318 10 0 59166 69300.00000 0 24064055.827 -8215867.129 -2104999.148 10 0 59166 70200.00000 0 23598443.231 -8152132.897 -5263634.063 10 0 59166 71100.00000 0 22797674.244 -7881799.582 -8320102.867 10 0 59166 72000.00000 0 21703514.962 -7367663.797 -11215096.331 10 0 59166 72900.00000 0 20366413.172 -6582269.054 -13892449.295 10 0 59166 73800.00000 0 18843358.405 -5509320.031 -16300227.253 10 0 59166 74700.00000 0 17195488.805 -4144630.470 -18391729.835 10 0 59166 75600.00000 0 15485545.111 -2496564.035 -20126392.219 10 0 59166 76500.00000 0 13775278.193 -585948.668 -21470567.523 10 0 59166 77400.00000 0 12122918.229 1554533.073 -22398175.545 10 0 59166 78300.00000 0 10580810.769 3881453.493 -22891205.926 10 0 59166 79200.00000 0 9193317.742 6342204.180 -22940066.428 10 0 59166 80100.00000 0 7995070.379 8876951.578 -22543769.867 10 0 59166 81000.00000 0 7009646.272 11420903.772 -21709956.163 10 0 59166 81900.00000 0 6248725.140 13906795.608 -20454748.841 10 0 59166 82800.00000 0 5711758.064 16267489.905 -18802448.332 10 0 59166 83700.00000 0 5386163.548 18438587.584 -16785067.362 10 0 59166 84600.00000 0 5248041.784 20360938.823 -14441716.612 10 0 59166 85500.00000 0 5263376.902 21982950.968 -11817851.841 10 0 59167 0.00000 0 5389676.352 23262597.233 -8964396.360 10 0 59167 900.00000 0 5577978.001 24169041.991 -5936754.938 10 0 59167 1800.00000 0 5775140.170 24683815.255 -2793739.004 10 0 59167 2700.00000 0 5926316.868 24801485.505 403577.327 10 0 59167 3600.00000 0 5977513.461 24529804.120 3593047.012 10 0 59167 4500.00000 0 5878113.384 23889313.945 6712662.354 10 0 59167 5400.00000 0 5583268.170 22912439.081 9701765.539 10 0 59167 6300.00000 0 5056048.438 21642094.095 12502233.277 10 0 59167 7200.00000 0 4269263.723 20129871.464 15059611.731 10 0 59167 8100.00000 0 3206872.955 18433883.804 17324179.163 10 0 59167 9000.00000 0 1864924.821 16616351.916 19251915.277 10 0 59167 9900.00000 0 251987.183 14741040.310 20805358.157 10 0 59167 10800.00000 0 -1610953.687 12870648.004 21954332.233 10 0 59167 11700.00000 0 -3691120.950 11064264.028 22676533.330 10 0 59167 12600.00000 0 -5945076.732 9374994.081 22957959.729 10 0 59167 13500.00000 0 -8320307.069 7847857.260 22793181.291 10 0 59167 14400.00000 0 -10757196.838 6518040.212 22185441.781 10 0 59167 15300.00000 0 -13191312.949 5409580.922 21146592.697 10 0 59167 16200.00000 0 -15555901.226 4534536.139 19696860.143 10 0 59167 17100.00000 0 -17784493.472 3892666.101 17864449.321 10 0 59167 18000.00000 0 -19813516.443 3471648.548 15684994.361 10 0 59167 18900.00000 0 -21584794.405 3247811.720 13200864.115 10 0 59167 19800.00000 0 -23047841.255 3187354.295 10460337.279 10 0 59167 20700.00000 0 -24161846.803 3247999.762 7516662.887 10 0 59167 21600.00000 0 -24897274.672 3381014.450 4427024.413 10 0 59167 22500.00000 0 -25237005.362 3533503.115 1251427.693 10 0 59167 23400.00000 0 -25176977.087 3650884.356 -1948465.479 10 0 59167 24300.00000 0 -24726298.093 3679440.552 -5110535.213 10 0 59167 25200.00000 0 -23906826.278 3568833.927 -8173409.357 10 0 59167 26100.00000 0 -22752234.271 3274481.913 -11077653.614 10 0 59167 27000.00000 0 -21306599.680 2759690.982 -13766922.782 10 0 59167 27900.00000 0 -19622579.931 1997458.349 -16189050.875 10 0 59167 28800.00000 0 -17759248.387 971865.116 -18297059.124 10 0 59167 29700.00000 0 -15779682.343 -320998.489 -20050062.764 10 0 59167 30600.00000 0 -13748403.497 -1872615.473 -21414059.596 10 0 59167 31500.00000 0 -11728777.484 -3662150.475 -22362585.542 10 0 59167 32400.00000 0 -9780480.363 -5657080.877 -22877225.168 10 0 59167 33300.00000 0 -7957136.969 -7814325.534 -22947967.731 10 0 59167 34200.00000 0 -6304228.784 -10081825.401 -22573402.126 10 0 59167 35100.00000 0 -4857357.655 -12400511.586 -21760747.073 10 0 59167 36000.00000 0 -3640936.871 -14706580.290 -20525715.716 10 0 59167 36900.00000 0 -2667363.487 -16933981.042 -18892216.839 10 0 59167 37800.00000 0 -1936705.724 -19017015.693 -16891897.839 10 0 59167 38700.00000 0 -1436917.904 -20892940.643 -14563537.502 10 0 59167 39600.00000 0 -1144573.398 -22504464.194 -11952299.620 10 0 59167 40500.00000 0 -1026084.326 -23802034.973 -9108861.164 10 0 59167 41400.00000 0 -1039356.192 -24745825.674 -6088431.333 10 0 59167 42300.00000 0 -1135807.269 -25307328.754 -2949680.305 10 0 59167 43200.00000 0 -1262666.861 -25470496.813 246401.635 10 0 59167 44100.00000 0 -1365454.628 -25232379.337 3437692.200 10 0 59167 45000.00000 0 -1390535.287 -24603228.636 6562148.807 10 0 59167 45900.00000 0 -1287639.582 -23606070.200 9559019.769 10 0 59167 46800.00000 0 -1012243.781 -22275755.356 12370030.738 10 0 59167 47700.00000 0 -527705.894 -20657536.002 14940522.586 10 0 59167 48600.00000 0 192932.890 -18805221.397 17220518.083 10 0 59167 49500.00000 0 1165558.810 -16778994.526 19165696.262 10 0 59167 50400.00000 0 2394067.916 -14642979.874 20738255.274 10 0 59167 51300.00000 0 3869959.971 -12462664.641 21907647.039 10 0 59167 52200.00000 0 5572462.023 -10302281.324 22651169.626 10 0 59167 53100.00000 0 7469177.351 -8222261.051 22954406.115 10 0 59167 54000.00000 0 9517233.537 -6276863.656 22811501.863 10 0 59167 54900.00000 0 11664882.394 -4512082.855 22225275.126 10 0 59167 55800.00000 0 13853485.537 -2963913.224 21207159.194 10 0 59167 56700.00000 0 16019803.281 -1657050.249 19776977.406 10 0 59167 57600.00000 0 18098491.827 -604076.541 17962555.449 10 0 59167 58500.00000 0 20024704.813 194833.073 15799178.552 10 0 59167 59400.00000 0 21736690.964 751676.710 13328904.014 10 0 59167 60300.00000 0 23178279.572 1089872.151 10599742.333 10 0 59167 61200.00000 0 24301150.046 1243018.147 7664722.849 10 0 59167 62100.00000 0 25066790.810 1253223.803 4580862.067 10 0 59167 63000.00000 0 25448065.725 1169077.622 1408054.749 10 0 59167 63900.00000 0 25430322.582 1043342.937 -1792090.374 10 0 59167 64800.00000 0 25011997.504 930477.958 -4957447.491 10 0 59167 65700.00000 0 24204690.159 884085.962 -8026579.706 10 0 59167 66600.00000 0 23032706.933 954403.949 -10939930.456 10 0 59167 67500.00000 0 21532091.467 1185936.400 -13640977.180 10 0 59167 68400.00000 0 19749183.332 1615334.473 -16077324.920 10 0 59167 69300.00000 0 17738765.282 2269610.523 -18201718.804 10 0 59167 70200.00000 0 15561876.442 3164763.661 -19972956.221 10 0 59167 71100.00000 0 13283382.493 4304874.797 -21356681.532 10 0 59167 72000.00000 0 10969403.808 5681709.894 -22326048.464 10 0 59167 72900.00000 0 8684708.098 7274849.003 -22862237.967 10 0 59167 73800.00000 0 6490175.294 9052336.823 -22954821.996 10 0 59167 74700.00000 0 4440439.408 10971828.769 -22601966.437 10 0 59167 75600.00000 0 2581804.474 12982186.049 -21810469.388 10 0 59167 76500.00000 0 950520.356 15025454.527 -20595633.815 10 0 59167 77400.00000 0 -428510.618 17039146.022 -18980976.648 10 0 59167 78300.00000 0 -1542543.159 18958727.982 -16997779.326 10 0 59167 79200.00000 0 -2391281.645 20720218.461 -14684487.684 10 0 59167 80100.00000 0 -2986644.294 22262778.519 -12085972.073 10 0 59167 81000.00000 0 -3352009.390 23531193.890 -9252661.314 10 0 59167 81900.00000 0 -3520975.912 24478141.992 -6239566.681 10 0 59167 82800.00000 0 -3535691.235 25066148.883 -3105214.597 10 0 59167 83700.00000 0 -3444817.148 25269153.548 89491.316 10 0 59167 84600.00000 0 -3301220.779 25073613.177 3282456.552 10 0 59167 85500.00000 0 -3159488.857 24479102.310 6411606.809 10 0 59168 0.00000 0 -3073371.362 23498380.068 9416099.676 10 0 59168 900.00000 0 -3093264.068 22156921.841 12237513.058 10 0 59168 1800.00000 0 -3263836.508 20491935.580 14820985.603 10 0 59168 2700.00000 0 -3621908.561 18550902.485 17116287.556 10 0 59168 3600.00000 0 -4194664.509 16389704.430 19078800.058 10 0 59168 4500.00000 0 -4998282.288 14070415.878 20670383.863 10 0 59168 5400.00000 0 -6037036.108 11658852.991 21860120.615 10 0 59168 6300.00000 0 -7302911.282 9221982.241 22624912.487 10 0 59168 7200.00000 0 -8775748.235 6825296.654 22949928.789 10 0 59168 8100.00000 0 -10423910.418 4530268.792 22828891.304 10 0 59168 9000.00000 0 -12205448.836 2391986.105 22264193.139 10 0 59168 9900.00000 0 -14069714.973 457066.553 21266849.135 10 0 59168 10800.00000 0 -15959355.188 -1238059.655 19856278.985 10 0 59168 11700.00000 0 -17812603.575 -2668431.710 18059927.372 10 0 59168 12600.00000 0 -19565777.709 -3821351.031 15912728.554 10 0 59168 13500.00000 0 -21155873.131 -4696653.655 13456425.704 10 0 59168 14400.00000 0 -22523148.177 -5306452.305 10738758.147 10 0 59168 15300.00000 0 -23613590.970 -5674360.486 7812532.279 10 0 59168 16200.00000 0 -24381165.270 -5834232.708 4734594.213 10 0 59168 17100.00000 0 -24789741.049 -5828475.248 1564724.173 10 0 59168 18000.00000 0 -24814628.782 -5705999.866 -1635525.600 10 0 59168 18900.00000 0 -24443653.124 -5519907.873 -4804026.691 10 0 59168 19800.00000 0 -23677720.905 -5325003.258 -7879280.622 10 0 59168 20700.00000 0 -22530859.682 -5175240.578 -10801611.539 10 0 59168 21600.00000 0 -21029725.199 -5121215.991 -13514322.252 10 0 59168 22500.00000 0 -19212598.376 -5207807.773 -15964791.295 10 0 59168 23400.00000 0 -17127913.677 -5472066.200 -18105489.819 10 0 59168 24300.00000 0 -14832380.151 -5941442.065 -19894899.085 10 0 59168 25200.00000 0 -12388773.145 -6632428.783 -21298311.265 10 0 59168 26100.00000 0 -9863488.264 -7549675.613 -22288498.621 10 0 59168 27000.00000 0 -7323958.708 -8685609.885 -22846238.679 10 0 59168 27900.00000 0 -4836042.520 -10020584.866 -22960685.759 10 0 59168 28800.00000 0 -2461487.497 -11523548.047 -22629581.929 10 0 59168 29700.00000 0 -255578.076 -13153203.003 -21859303.435 10 0 59168 30600.00000 0 1734939.071 -14859617.457 -20664741.490 10 0 59168 31500.00000 0 3473565.330 -16586211.464 -19069019.332 10 0 59168 32400.00000 0 4935326.121 -18272043.711 -17103050.396 10 0 59168 33300.00000 0 6107560.218 -19854301.203 -14804945.366 10 0 59168 34200.00000 0 6990190.138 -21270888.742 -12219278.859 10 0 59168 35100.00000 0 7595463.038 -22463010.067 -9396229.184 10 0 59168 36000.00000 0 7947173.674 -23377632.431 -6390607.288 10 0 59168 36900.00000 0 8079402.662 -23969730.838 -3260793.438 10 0 59168 37800.00000 0 8034823.941 -24204217.088 -67602.213 10 0 59168 38700.00000 0 7862653.520 -24057471.780 3126902.008 10 0 59168 39600.00000 0 7616326.966 -23518413.965 6260615.491 10 0 59168 40500.00000 0 7351004.701 -22589062.583 9272607.435 10 0 59168 41400.00000 0 7121011.567 -21284565.243 12104309.885 10 0 59168 42300.00000 0 6977319.937 -19632692.453 14700661.347 10 0 59168 43200.00000 0 6965183.775 -17672818.001 17011181.378 10 0 59168 44100.00000 0 7122024.575 -15454427.822 18990954.842 10 0 59168 45000.00000 0 7475659.314 -13035219.586 20601506.449 10 0 59168 45900.00000 0 8042945.948 -10478872.293 21811548.625 10 0 59168 46800.00000 0 8828904.229 -7852578.832 22597588.374 10 0 59168 47700.00000 0 9826349.453 -5224444.277 22944381.607 10 0 59168 48600.00000 0 11016055.077 -2660858.008 22845226.546 10 0 59168 49500.00000 0 12367437.879 -223948.552 22302090.828 10 0 59168 50400.00000 0 13839737.335 2030773.468 21325570.191 10 0 59168 51300.00000 0 15383640.119 4056487.063 19934679.740 10 0 59168 52200.00000 0 16943281.997 5816762.115 18156481.950 10 0 59168 53100.00000 0 18458543.398 7286820.317 16025558.661 10 0 59168 54000.00000 0 19867542.643 8454304.704 13583337.260 10 0 59168 54900.00000 0 21109222.378 9319527.052 10877284.040 10 0 59168 55800.00000 0 22125920.681 9895184.320 7959980.408 10 0 59168 56700.00000 0 22865818.900 10205557.603 4888099.869 10 0 59168 57600.00000 0 23285163.310 10285228.747 1721305.768 10 0 59168 58500.00000 0 23350167.120 10177369.974 -1478908.583 10 0 59168 59400.00000 0 23038512.743 9931679.829 -4650414.623 10 0 59168 60300.00000 0 22340391.065 9602053.539 -7731654.704 10 0 59168 61200.00000 0 21259033.846 9244086.911 -10662835.977 10 0 59168 62100.00000 0 19810716.734 8912519.752 -13387088.762 10 0 59168 63000.00000 0 18024232.446 8658727.155 -15851567.010 10 0 59168 63900.00000 0 15939855.894 8528364.714 -18008469.611 10 0 59168 64800.00000 0 13607844.059 8559267.164 -19815963.214 10 0 59168 65700.00000 0 11086532.643 8779689.027 -21238989.157 10 0 59168 66600.00000 0 8440108.231 9206961.486 -22249939.422 10 0 59168 67500.00000 0 5736147.812 9846622.193 -22829189.155 10 0 59168 68400.00000 0 3043027.015 10692054.987 -22965475.908 10 0 59168 69300.00000 0 427303.779 11724655.230 -22656118.575 10 0 59168 70200.00000 0 -2048815.002 12914514.613 -21907071.920 10 0 59168 71100.00000 0 -4329819.787 14221597.691 -20732815.443 10 0 59168 72000.00000 0 -6368961.068 15597361.846 -19156078.353 10 0 59168 72900.00000 0 -8129943.694 16986753.783 -17207405.369 10 0 59168 73800.00000 0 -9588183.163 18330499.801 -14924570.926 10 0 59168 74700.00000 0 -10731572.163 19567594.441 -12351852.448 10 0 59168 75600.00000 0 -11560726.102 20637883.468 -9539175.964 10 0 59168 76500.00000 0 -12088697.979 21484632.799 -6541150.047 10 0 59168 77400.00000 0 -12340175.154 22056975.101 -3416006.540 10 0 59168 78300.00000 0 -12350192.473 22312130.595 -224468.505 10 0 59168 79200.00000 0 -12162416.666 22217307.777 2971432.428 10 0 59168 80100.00000 0 -11827075.140 21751203.041 6109565.836 10 0 59168 81000.00000 0 -11398617.464 20905035.023 9128915.291 10 0 59168 81900.00000 0 -10933209.284 19683069.059 11970769.955 10 0 59168 82800.00000 0 -10486165.495 18102608.744 14579871.012 10 0 59168 83700.00000 0 -10109432.032 16193454.073 16905490.125 10 0 59168 84600.00000 0 -9849223.535 13996848.183 18902418.572 10 0 59168 85500.00000 0 -9743917.324 11563956.300 20531847.524 99